Погода в Фатеево

Россия / Кировская область     58°24′46″N   49°57′17″E
темп.,
°C
ветер,
м/с
пор.,
м/с
влажн.,
%
обл.,
%
осадки,
мм/ч
давл.,
гПа
погр.,
м
17 июня, чт
чт1700:00+12ссз310950 0.0 1012302
03:00+10сз399633 0.0 1013234
06:00+12ссз38798 0.0 1015331
09:00+18ссз48465 0.0 10151794
12:00+17сз3653100 0.0 10161340
15:00+19ссз584693 0.0 10162113
18:00+15ссз495965 0.0 10181107
21:00+10сз37683 0.0 1020150
18 июня, пт
пт1800:00+9ссз412730 0.0 1022469
03:00+7сз310835 0.0 1024346
06:00+11ссз376913 0.0 1025475
09:00+16ссз354890 0.0 10251359
12:00+19зсз353811 0.0 10251759
15:00+20з4637100 0.0 10241825
18:00+18юз3757100 0.0 1022412
21:00+15юз31172100 0.0 1022240
19 июня, сб
сб1900:00+15зюз4137455 0.0 1022329
03:00+15зюз41373100 0.0 1020377
06:00+17зюз41274100 0.0 1020427
09:00+23з596035 0.0 1019736
12:00+26з710475 0.0 10171897
15:00+28з610440 0.0 10162144
18:00+25з510542 0.0 1016865
21:00+22з41266100 0.0 1016450
20 июня, вс
вс2000:00+21з4126480 0.0 1017426
03:00+16зсз38861 0.0 1018168
06:00+20ссз36790 0.0 1020392
09:00+24ссз35590 0.0 10201035
12:00+27ссз35479 0.0 10201869
15:00+28ссз26391 0.0 10192404
18:00+22сз117087 0.0 102013
21:00+21вюв3774100 0.0 1020147
21 июня, пн
пн2100:00+19ююв25815 0.0 102088
03:00+17юз23915 0.0 102056
06:00+22зюз246873 0.0 1019182
09:00+26з4660100 0.0 1019697
12:00+29з56455 0.0 10182270
15:00+29з45425 0.0 10171671
18:00+27з49520 0.0 1016599
21:00+22ююз12688 0.1 101627